#timestamp,LO_Frequency,Hit,StdDev 
1633528815.8,286047001.0,N
1633528835.6,286047000.4,N
1633528855.5,286047002.4,N
1633528875.3,286047002.3,N
1633528895.1,286047000.1,N
1633528915.9,286047000.1,N
1633528935.7,286047000.1,N
1633528955.6,286047002.1,N
1633528975.4,286047002.3,N
1633528995.2,286046999.7,N
1633529015.1,286047000.8,N
1633529016.0,286047000.8,N
1633529035.8,286047001.2,N
1633529055.6,286047000.5,N
1633529075.5,286046998.2,N
1633529095.3,286046998.9,N
1633529115.2,286046998.8,N
1633529135.9,286046999.3,N
1633529155.7,286046999.1,N
1633529175.6,286046996.6,N
1633529195.4,286046999.6,N
1633529215.2,286046999.0,N
1633529235.1,286046998.3,N
1633529236.0,286046998.3,N
1633529255.8,286047000.8,N
1633529275.7,286046998.4,N
1633529295.5,286047000.8,N
1633529315.4,286047000.8,N
1633529335.2,286047000.7,N
1633529355.0,286047000.4,N
1633529355.9,286047000.4,N
1633529375.8,286047000.4,N
1633529395.6,286047001.1,N
1633529415.4,286046998.2,N
1633529435.3,286047000.6,N
1633529455.1,286046998.3,N
1633529475.9,286046999.0,N
1633529495.7,286046998.9,N
1633529515.5,286046999.5,N
1633529535.4,286046999.4,N
1633529555.2,286046999.0,N
1633529575.1,286046999.6,N
1633529576.0,286046999.6,N
1633529595.8,286046996.6,Y
1633529615.6,286046998.7,P
1633529635.5,286046998.7,P
1633529655.3,286047001.2,P
1633529675.1,286046999.1,N
1633529695.9,286046999.1,N
1633529715.7,286046998.8,N
1633529735.6,286046999.3,N
1633529755.4,286046998.2,N
1633529775.2,286046998.1,N
1633529795.1,286047001.1,N
1633529796.0,286047001.1,N
1633529815.8,286046998.2,N
1633529835.7,286046998.3,N
1633529855.5,286046998.3,N
1633529875.3,286046998.4,N
1633529895.2,286046999.3,N
1633529915.9,286046996.6,Y
1633529935.7,286046999.1,P
1633529955.6,286046998.8,P
1633529975.4,286046998.3,P
1633529995.3,286046998.9,Y
1633530015.1,286047000.9,P
1633530016.0,286047000.9,N
1633530035.8,286047000.3,N
1633530055.7,286047001.2,N
1633530075.5,286046999.7,N
1633530095.4,286047002.8,Y
1633530115.2,286046999.9,P
1633530135.0,286047000.5,N
1633530135.9,286047000.5,N
1633530155.8,286047000.5,N
1633530175.6,286046998.5,Y
1633530195.4,286047001.1,P
1633530215.3,286046998.5,P
1633530235.1,286047000.9,N
1633530255.9,286047000.6,N
1633530275.7,286047000.4,N
1633530295.5,286047000.0,N
1633530315.4,286047000.5,N
1633530335.2,286047000.8,N
1633530355.0,286047000.3,N
1633530356.0,286047000.3,N
1633530375.8,286047000.5,N
1633530395.6,286047000.8,N
1633530415.5,286046998.1,Y
1633530435.3,286046998.3,P
1633530455.1,286046998.4,N
1633530475.9,286046999.3,N
1633530495.7,286046998.6,N
1633530515.5,286046998.7,N
1633530535.3,286046999.0,N
1633530555.2,286046997.1,Y
1633530575.0,286046999.4,P
1633530575.9,286046999.4,N
1633530595.8,286046999.0,P
1633530615.6,286046999.4,N
1633530635.4,286046998.9,Y
1633530655.3,286047001.0,P
1633530675.1,286047001.0,N
1633530695.9,286047000.6,N
1633530715.7,286047002.8,Y
1633530735.5,286046999.7,P
1633530755.4,286047000.2,N
1633530775.2,286047000.3,N
1633530795.0,286047000.9,Y
1633530795.9,286047000.9,P
1633530815.8,286047000.4,N
1633530835.6,286047000.2,N
1633530855.5,286047000.4,N
1633530875.3,286047002.7,Y
1633530895.1,286047002.0,P
1633530915.9,286047000.1,N
1633530935.7,286047002.7,P
1633530955.5,286047000.5,N
1633530975.4,286047000.9,N
1633530995.2,286046999.9,N
1633531015.1,286047000.2,N
1633531016.0,286047000.2,N
1633531035.8,286047000.0,N
1633531055.6,286046999.7,N
1633531075.5,286047000.1,N
1633531095.3,286047000.7,N
1633531115.2,286047001.0,N
1633531135.9,286047001.0,N
1633531155.7,286047000.6,N
1633531175.6,286047001.2,N
1633531195.4,286047000.7,N
1633531215.2,286047000.9,N
1633531235.1,286047001.2,N
1633531236.0,286047001.2,N
1633531255.8,286046998.1,N
1633531275.7,286046998.3,N
1633531295.5,286046999.2,N
1633531315.3,286046997.0,Y
1633531335.2,286046996.9,P
1633531355.0,286046994.9,N
1633531355.9,286046994.9,N
1633531375.8,286046997.8,N
1633531395.6,286046995.5,N
1633531415.4,286046995.0,N
1633531435.3,286046995.2,N
1633531455.1,286046995.2,N
1633531475.8,286046998.0,N
1633531495.7,286046995.1,N
1633531515.5,286046996.1,N
1633531535.4,286046995.3,N
1633531555.2,286046997.1,N
1633531575.0,286046996.5,N
1633531575.9,286046996.5,N
1633531595.8,286046996.5,N
1633531615.6,286046997.0,N
1633531635.5,286046996.6,N
1633531655.3,286046996.7,N
1633531675.1,286046996.9,N
1633531695.9,286046997.8,N
1633531715.7,286046997.7,N
1633531735.5,286046996.7,N
1633531755.4,286046997.0,N
1633531775.2,286046996.8,N
1633531795.1,286046996.9,N
1633531796.0,286046996.9,N
1633531815.8,286046997.0,N
1633531835.6,286046999.3,N
1633531855.5,286046998.4,N
1633531875.3,286046998.1,N
1633531895.2,286047001.0,N
1633531915.9,286047000.5,N
1633531935.7,286046998.1,N
1633531955.6,286046998.5,N
1633531975.4,286046998.1,N
1633531995.2,286047000.7,N
1633532015.1,286046999.3,N
1633532016.0,286046999.3,N
1633532035.8,286046998.7,N
1633532055.7,286046996.5,N
1633532075.5,286046999.2,N
1633532095.3,286046996.5,N
1633532115.2,286046998.5,N
1633532135.0,286046999.0,N
1633532135.9,286046999.0,N
1633532155.8,286046998.3,N
1633532175.6,286046998.3,N
1633532195.4,286046996.6,N
1633532215.3,286046998.7,N
1633532235.1,286046998.9,N
1633532255.9,286046998.4,N
1633532275.7,286046999.1,N
1633532295.5,286046999.5,N
1633532315.4,286046998.7,N
1633532335.2,286046998.8,N
1633532355.0,286046998.4,N
1633532356.0,286046998.4,N
1633532375.8,286046998.1,N
1633532395.6,286047001.2,N
